Location: Grand Mazuras
(45.9128°N, 1.7636°E)
Time: 22:12:11
(UTC+00:00)

N. Korean satellite - Pass Details

Date: 03 October 2021
Orbit: 450 x 495 km, 97.3° (Epoch: 21 October)

Event Time Altitude Azimuth Distance (km) Brightness Sun altitude
Rises 04:28:16 0° 25° (NNE) 2,556 10.7 -15.7°
Reaches altitude 10° 04:30:37 10° 39° (NE) 1,678 10.0 -15.3°
Maximum altitude 04:33:35 24° 95° (E) 1,063 9.2 -14.8°
Drops below altitude 10° 04:36:34 10° 150° (SSE) 1,682 9.6 -14.2°
Sets 04:38:56 0° 165° (SSE) 2,563 10.3 -13.8°
